TimePDT,TemperatureF,Dew PointF,Humidity,Sea Level PressureIn,VisibilityMPH,Wind Direction,Wind SpeedMPH,Gust SpeedMPH,PrecipitationIn,Events,Conditions,WindDirDegrees,DateUTC
12:54 AM,55.9,50.0,80,30.09,10.0,SE,4.6,-,N/A,,Clear,130,2012-10-09 07:54:00
2:54 AM,53.1,46.0,77,30.08,10.0,East,3.5,-,N/A,,Clear,90,2012-10-09 09:54:00
3:54 AM,53.1,45.0,74,30.07,10.0,ESE,3.5,-,N/A,,Clear,110,2012-10-09 10:54:00
4:54 AM,50.0,44.1,80,30.06,10.0,Calm,Calm,-,N/A,,Clear,0,2012-10-09 11:54:00
5:54 AM,50.0,44.1,80,30.06,10.0,East,3.5,-,N/A,,Clear,90,2012-10-09 12:54:00
6:24 AM,51.8,44.6,76,30.03,10.0,Calm,Calm,-,N/A,,Scattered Clouds,0,2012-10-09 13:24:00
6:32 AM,50.0,44.6,82,30.03,10.0,ESE,4.6,-,N/A,,Mostly Cloudy,120,2012-10-09 13:32:00
6:52 AM,48.2,42.8,82,30.03,10.0,East,3.5,-,N/A,,Scattered Clouds,90,2012-10-09 13:52:00
6:54 AM,48.9,43.0,80,30.06,10.0,East,3.5,-,N/A,,Partly Cloudy,90,2012-10-09 13:54:00
7:54 AM,51.1,44.1,77,30.07,10.0,Calm,Calm,-,N/A,,Clear,0,2012-10-09 14:54:00
8:54 AM,57.0,46.9,69,30.07,10.0,Calm,Calm,-,N/A,,Clear,0,2012-10-09 15:54:00
9:54 AM,62.1,50.0,65,30.06,10.0,NW,5.8,-,N/A,,Clear,310,2012-10-09 16:54:00
10:54 AM,64.0,52.0,65,30.06,10.0,WNW,4.6,-,N/A,,Clear,300,2012-10-09 17:54:00
11:54 AM,64.9,50.0,58,30.05,10.0,WSW,4.6,-,N/A,,Overcast,250,2012-10-09 18:54:00
12:54 PM,68.0,48.0,49,30.03,9.0,WNW,6.9,-,N/A,,Mostly Cloudy,300,2012-10-09 19:54:00
1:54 PM,71.1,48.0,44,30.01,10.0,WSW,11.5,-,N/A,,Clear,240,2012-10-09 20:54:00
2:54 PM,69.1,51.1,53,30.00,10.0,SW,9.2,-,N/A,,Clear,230,2012-10-09 21:54:00
3:54 PM,69.1,52.0,54,30.00,10.0,SW,10.4,-,N/A,,Scattered Clouds,230,2012-10-09 22:54:00
4:54 PM,64.9,54.0,68,30.00,10.0,West,8.1,-,N/A,,Mostly Cloudy,260,2012-10-09 23:54:00
5:54 PM,63.0,55.0,75,30.00,10.0,West,6.9,-,N/A,,Mostly Cloudy,260,2012-10-10 00:54:00
6:54 PM,61.0,55.0,81,30.01,10.0,SW,5.8,-,N/A,,Overcast,230,2012-10-10 01:54:00
7:01 PM,60.8,55.4,82,29.98,10.0,SW,4.6,-,N/A,,Overcast,230,2012-10-10 02:01:00
7:54 PM,61.0,55.0,81,30.03,10.0,SW,5.8,-,N/A,,Overcast,230,2012-10-10 02:54:00
8:54 PM,61.0,55.0,81,30.02,10.0,SSW,3.5,-,N/A,,Overcast,200,2012-10-10 03:54:00
9:54 PM,60.1,54.0,80,30.02,10.0,Calm,Calm,-,N/A,,Mostly Cloudy,0,2012-10-10 04:54:00
10:54 PM,60.1,55.0,83,30.02,10.0,South,3.5,-,N/A,,Overcast,190,2012-10-10 05:54:00
11:54 PM,60.1,55.0,83,30.01,10.0,Calm,Calm,-,N/A,,Overcast,0,2012-10-10 06:54:00